sat.trackr.live / text

‹ back to catalog

STARLINK-31601

NORAD 59209 · 2024-046J

PAYLOAD ACTIVE UNKNOWN

§ Identity

Operator
Country
US
Launch date
2024-03-11
Launch site
AFWTR
Launch vehicle
Mass (kg)
RCS (m²)

Purposes: comms

External: N2YO · Heavens-Above · Gunter

§ Orbital elements

Epoch: 2026-09-20T10:36:59.152320Z

Period
93.85 min
Inclination
53.1616°
Eccentricity
0.0001167
Mean motion
15.34392278 rev/d
Perigee alt
461.9 km
Apogee alt
463.5 km
Semi-major
6,840.9 km
B*
2.5227e-5
RAAN
326.0112°
Arg perigee
84.5351°
Mean anomaly
275.5784°
Rev number
14,293

§ Raw data

STARLINK-316011 59209U 24046J   26263.44235130  .00000476  00000+0  25227-4 0  99902 59209  53.1616 326.0112 0001167  84.5351 275.5784 15.34392278142936

JSON: /api/v1/satellites/59209 · /tle

For live sub-satellite position, see the globe view (requires WebGL).

§ Visibility from observer

Set your observer location to see the next 7 days of passes ≥ 10°. The values pass through the URL so the page stays shareable.

No JS? Fill the form by hand. The geolocation button needs JavaScript.